Breckenridge, MN

9:18 PM CST on February 19, 2017 (GMT -0600)
Stern

Weather History for KBWP - September, 2012

Change the Weather History Date:

Wednesday, September 5, 2012

  Actual Average (KFFM) Record (KFFM)
Temperature  
Mean Temperature 63 °F -  
Max Temperature 73 °F 75 °F 94 °F (1978)
Min Temperature 53 °F 51 °F 33 °F (1965)
Degree Days  
Heating Degree Days 2    
Growing Degree Days 13 (Base 50)    
Moisture  
Dew Point 42 °F    
Average Humidity 46    
Maximum Humidity 72    
Minimum Humidity 27    
Precipitation  
Precipitation 0.00 in - - ()
Sea Level Pressure  
Sea Level Pressure 29.89 in    
Wind  
Wind Speed 10 mph (NW)    
Max Wind Speed 18 mph    
Max Gust Speed 23 mph    
Visibility 10 miles    
Events      
Averages and records for this station are not official NWS values.
T = Trace of Precipitation, MM = Missing Value Source: NWS Daily Summary

Daily Weather History Graph

Daily Weather History Graph

Search for Another Location

Airport or City:

Trip Planner

Search our weather history database for the weather conditions in past years. The results will help you decide how hot, cold, wet, or windy it might be!

Date:

Astronomy

Sep. 05, 2012 Rise Set
Actual Time 6:52 AM CDT 7:56 PM CDT
Civil Twilight 6:21 AM CDT 8:27 PM CDT
Nautical Twilight 5:44 AM CDT 9:03 PM CDT
Astronomical Twilight 5:05 AM CDT 9:42 PM CDT
Moon 10:05 PM CDT (9/5) 12:18 PM CDT (9/5)
Length of Visible Light 14h 05m
Length of Day
13h 03m
Waning Gibbous, 76% of the Moon is Illuminated
Sep 5
Waning Gibbous
Sep 8
Last Quarter
Sep 15
New
Sep 22
First Quarter
Sep 29
Full

Hourly Weather History & Observations

Time (CDT) Temp. Dew Point Humidity Pressure Visibility Wind Dir Wind Speed Gust Speed Precip Events Conditions
12:15 AM 71.6 °F 42.8 °F 35% 29.83 in 10.0 mi North 10.4 mph - N/A   Overcast
12:35 AM 71.6 °F 42.8 °F 35% 29.83 in 10.0 mi North 18.4 mph 23.0 mph N/A   Overcast
12:55 AM 71.6 °F 41.0 °F 33% 29.84 in 10.0 mi NNW 15.0 mph 21.9 mph N/A   Mostly Cloudy
1:15 AM 69.8 °F 41.0 °F 35% 29.83 in 10.0 mi North 9.2 mph - N/A   Mostly Cloudy
1:35 AM 69.8 °F 42.8 °F 38% 29.85 in 10.0 mi North 9.2 mph 16.1 mph N/A   Mostly Cloudy
1:55 AM 68.0 °F 42.8 °F 40% 29.86 in 10.0 mi East 3.5 mph - N/A   Overcast
2:15 AM 64.4 °F 46.4 °F 52% 29.85 in 10.0 mi ESE 13.8 mph - N/A   Overcast
2:35 AM 64.4 °F 46.4 °F 52% 29.82 in 10.0 mi Calm Calm - N/A   Mostly Cloudy
2:55 AM 64.4 °F 44.6 °F 49% 29.83 in 10.0 mi North 5.8 mph - N/A   Clear
3:15 AM 64.4 °F 44.6 °F 49% 29.83 in 10.0 mi North 5.8 mph - N/A   Clear
3:35 AM 62.6 °F 44.6 °F 52% 29.84 in 10.0 mi Calm Calm - N/A   Clear
3:55 AM 59.0 °F 44.6 °F 59% 29.84 in 10.0 mi NNW 9.2 mph - N/A   Clear
4:15 AM 59.0 °F 44.6 °F 59% 29.85 in 10.0 mi NW 9.2 mph - N/A   Clear
4:35 AM 59.0 °F 44.6 °F 59% 29.86 in 10.0 mi NW 12.7 mph - N/A   Scattered Clouds
4:55 AM 59.0 °F 46.4 °F 63% 29.87 in 10.0 mi NW 10.4 mph - N/A   Scattered Clouds
5:15 AM 59.0 °F 46.4 °F 63% 29.88 in 10.0 mi NW 9.2 mph - N/A   Scattered Clouds
5:35 AM 59.0 °F 46.4 °F 63% 29.88 in 10.0 mi NNW 6.9 mph - N/A   Scattered Clouds
5:55 AM 57.2 °F 46.4 °F 67% 29.89 in 10.0 mi NW 6.9 mph - N/A   Scattered Clouds
6:15 AM 57.2 °F 46.4 °F 67% 29.90 in 10.0 mi NW 8.1 mph - N/A   Scattered Clouds
6:35 AM 57.2 °F 44.6 °F 63% 29.90 in 10.0 mi NNW 8.1 mph - N/A   Mostly Cloudy
6:55 AM 55.4 °F 44.6 °F 67% 29.91 in 10.0 mi NNW 3.5 mph - N/A   Scattered Clouds
7:15 AM 53.6 °F 44.6 °F 72% 29.91 in 10.0 mi Calm Calm - N/A   Clear
7:35 AM 53.6 °F 44.6 °F 72% 29.91 in 10.0 mi NW 3.5 mph - N/A   Clear
7:55 AM 55.4 °F 44.6 °F 67% 29.91 in 10.0 mi West 3.5 mph - N/A   Clear
8:15 AM 57.2 °F 46.4 °F 67% 29.91 in 10.0 mi WNW 5.8 mph - N/A   Scattered Clouds
8:35 AM 59.0 °F 44.6 °F 59% 29.91 in 10.0 mi NW 9.2 mph - N/A   Scattered Clouds
8:55 AM 62.6 °F 42.8 °F 48% 29.91 in 10.0 mi NW 15.0 mph 18.4 mph N/A   Mostly Cloudy
9:15 AM 62.6 °F 41.0 °F 45% 29.91 in 10.0 mi NW 12.7 mph - N/A   Scattered Clouds
9:35 AM 62.6 °F 42.8 °F 48% 29.91 in 10.0 mi NW 11.5 mph - N/A   Clear
9:55 AM 64.4 °F 42.8 °F 45% 29.91 in 10.0 mi NNW 12.7 mph - N/A   Clear
10:15 AM 68.0 °F 41.0 °F 37% 29.92 in 10.0 mi NW 13.8 mph - N/A   Clear
10:35 AM 68.0 °F 42.8 °F 40% 29.92 in 10.0 mi NW 13.8 mph 20.7 mph N/A   Clear
10:55 AM 68.0 °F 42.8 °F 40% 29.92 in 10.0 mi NW 12.7 mph 20.7 mph N/A   Clear
11:15 AM 69.8 °F 41.0 °F 35% 29.92 in 10.0 mi WNW 18.4 mph 23.0 mph N/A   Clear
11:35 AM 69.8 °F 41.0 °F 35% 29.91 in 10.0 mi NNW 17.3 mph 20.7 mph N/A   Clear
11:55 AM 69.8 °F 41.0 °F 35% 29.91 in 10.0 mi WNW 16.1 mph 21.9 mph N/A   Clear
12:15 PM 71.6 °F 41.0 °F 33% 29.91 in 10.0 mi NNW 13.8 mph - N/A   Clear
1:15 PM 71.6 °F 39.2 °F 31% 29.90 in 10.0 mi WNW 17.3 mph 20.7 mph N/A   Clear
1:35 PM 71.6 °F 39.2 °F 31% 29.90 in 10.0 mi West 15.0 mph 23.0 mph N/A   Clear
1:55 PM 71.6 °F 41.0 °F 33% 29.90 in 10.0 mi NW 15.0 mph 21.9 mph N/A   Clear
2:15 PM 73.4 °F 39.2 °F 29% 29.89 in 10.0 mi NW 10.4 mph - N/A   Scattered Clouds
2:35 PM 73.4 °F 39.2 °F 29% 29.89 in 10.0 mi WNW 18.4 mph 21.9 mph N/A   Mostly Cloudy
2:55 PM 71.6 °F 37.4 °F 29% 29.88 in 10.0 mi NW 13.8 mph 17.3 mph N/A   Scattered Clouds
3:15 PM 73.4 °F 39.2 °F 29% 29.88 in 10.0 mi NW 10.4 mph 19.6 mph N/A   Mostly Cloudy
3:35 PM 73.4 °F 37.4 °F 27% 29.88 in 10.0 mi WNW 11.5 mph 18.4 mph N/A   Overcast
3:55 PM 73.4 °F 37.4 °F 27% 29.88 in 10.0 mi WNW 12.7 mph 17.3 mph N/A   Overcast
4:15 PM 71.6 °F 37.4 °F 29% 29.88 in 10.0 mi NW 16.1 mph 19.6 mph N/A   Mostly Cloudy
4:35 PM 71.6 °F 37.4 °F 29% 29.88 in 10.0 mi WNW 12.7 mph - N/A   Scattered Clouds
4:55 PM 71.6 °F 39.2 °F 31% 29.88 in 10.0 mi WNW 11.5 mph - N/A   Scattered Clouds
5:15 PM 71.6 °F 39.2 °F 31% 29.88 in 10.0 mi WNW 11.5 mph 16.1 mph N/A   Mostly Cloudy
5:35 PM 71.6 °F 41.0 °F 33% 29.88 in 10.0 mi NW 13.8 mph - N/A   Overcast
5:55 PM 71.6 °F 41.0 °F 33% 29.88 in 10.0 mi NW 8.1 mph - N/A   Overcast
6:15 PM 71.6 °F 39.2 °F 31% 29.88 in 10.0 mi West 13.8 mph - N/A   Mostly Cloudy
6:35 PM 71.6 °F 41.0 °F 33% 29.88 in 10.0 mi NW 9.2 mph - N/A   Scattered Clouds
6:55 PM 71.6 °F 41.0 °F 33% 29.88 in 10.0 mi WNW 9.2 mph - N/A   Clear
7:15 PM 69.8 °F 42.8 °F 38% 29.88 in 10.0 mi NW 6.9 mph - N/A   Scattered Clouds
7:35 PM 66.2 °F 42.8 °F 43% 29.88 in 10.0 mi NW 3.5 mph - N/A   Scattered Clouds
7:55 PM 62.6 °F 42.8 °F 48% 29.88 in 10.0 mi NW 4.6 mph - N/A   Clear
8:15 PM 62.6 °F 39.2 °F 42% 29.89 in 10.0 mi Calm Calm - N/A   Clear
8:35 PM 62.6 °F 41.0 °F 45% 29.90 in 10.0 mi Calm Calm - N/A   Clear
8:55 PM 59.0 °F 42.8 °F 55% 29.90 in 10.0 mi Calm Calm - N/A   Clear
9:15 PM 59.0 °F 44.6 °F 59% 29.91 in 10.0 mi Calm Calm - N/A   Clear
9:55 PM 57.2 °F 41.0 °F 55% 29.91 in 10.0 mi WSW 3.5 mph - N/A   Clear
10:15 PM 55.4 °F 42.8 °F 63% 29.90 in 10.0 mi Calm Calm - N/A   Clear
10:35 PM 53.6 °F 42.8 °F 67% 29.91 in 10.0 mi Calm Calm - N/A   Clear
11:15 PM 53.6 °F 42.8 °F 67% 29.91 in 10.0 mi Calm Calm - N/A   Clear
11:35 PM 55.4 °F 42.8 °F 63% 29.91 in 10.0 mi Calm Calm - N/A   Clear
11:55 PM 53.6 °F 42.8 °F 67% 29.91 in 10.0 mi SSW 3.5 mph - N/A   Clear